This is the latest recevied weather packets stored in our database for station/object EA7URS-13. If no packets are shown the sender has not sent any weather packets the latest 10 day(s).
| Time | Temp. | Humidity | Pressure | Rain* | Wind** | Luminosity | Snow |
|---|---|---|---|---|---|---|---|
| 1788282008 | 35° C | 32% | 1008.2 hPa | 0 mm | - | 120 W/m² | - |
| 1788281721 | 35.56° C | 30% | 1008 hPa | 0 mm | - | 142 W/m² | - |
| 1788281406 | 35.56° C | 30% | 1008 hPa | 0 mm | - | 142 W/m² | - |
| 1788281105 | 34.44° C | 33% | 1008.1 hPa | 0 mm | - | 172 W/m² | - |
| 1788280803 | 34.44° C | 33% | 1008.1 hPa | 0 mm | - | 172 W/m² | - |
| 1788280502 | 35° C | 32% | 1008.1 hPa | 0 mm | - | 199 W/m² | - |
| 1788280201 | 35° C | 32% | 1008.1 hPa | 0 mm | - | 199 W/m² | - |
| 1788279900 | 35° C | 30% | 1008.3 hPa | 0 mm | - | 221 W/m² | - |
| 1788279599 | 35° C | 30% | 1008.3 hPa | 0 mm | - | 221 W/m² | - |
| 1788279298 | 35° C | 30% | 1008.4 hPa | 0 mm | - | 244 W/m² | - |
| 1788278997 | 35° C | 30% | 1008.4 hPa | 0 mm | - | 244 W/m² | - |
| 1788278696 | 34.44° C | 32% | 1008.3 hPa | 0 mm | - | 270 W/m² | - |
| 1788278395 | 34.44° C | 32% | 1008.3 hPa | 0 mm | - | 270 W/m² | - |
| 1788278094 | 33.89° C | 31% | 1008.4 hPa | 0 mm | - | 295 W/m² | - |
| 1788277792 | 33.89° C | 31% | 1008.4 hPa | 0 mm | - | 295 W/m² | - |
| 1788277491 | 33.89° C | 33% | 1008.4 hPa | 0 mm | - | 323 W/m² | - |
| 1788277190 | 33.89° C | 33% | 1008.4 hPa | 0 mm | - | 323 W/m² | - |
| 1788276889 | 33.33° C | 32% | 1008.4 hPa | 0 mm | - | 348 W/m² | - |
| 1788276588 | 33.33° C | 32% | 1008.4 hPa | 0 mm | - | 348 W/m² | - |
| 1788276287 | 33.89° C | 31% | 1008.5 hPa | 0 mm | - | 374 W/m² | - |
| 1788275986 | 33.89° C | 31% | 1008.5 hPa | 0 mm | - | 374 W/m² | - |
| 1788275685 | 33.33° C | 32% | 1008.6 hPa | 0 mm | - | 398 W/m² | - |
| 1788275384 | 33.33° C | 32% | 1008.6 hPa | 0 mm | - | 398 W/m² | - |
| 1788275083 | 34.44° C | 32% | 1008.5 hPa | 0 mm | - | 424 W/m² | - |
| 1788274782 | 34.44° C | 32% | 1008.5 hPa | 0 mm | - | 424 W/m² | - |
* Rain latest hour (hover to see other rain measurements)
** Current wind speed in m/s (hover to see current wind gust speed)